OAS257 MDSD-SKBO

Flight info

Callsign OAS257
Flight time 2h 11m
Altitude 36000
Route BEROX2J BEROX DCT AMBAS DCT UGOSA DCT LOKOV UG444 EJA UQ119 ILSEV ILSEV5E
Aircraft A320/M-SDE3FGHIRWY/LB1

Departure

Time 2026-05-04 00:00
Airport Las Américas International Airport (MDSD)

Arrival

Time 2026-05-04 02:12
Airport El Dorado International Airport (SKBO)
Time Latitude Longitude Altitude Speed Heading
2026-05-03 23:38 18.42942 -69.67447 68 ft 0 kts 251°
2026-05-03 23:51 18.42947 -69.67433 62 ft 4 kts 243°
2026-05-03 23:51 18.42962 -69.67410 58 ft 4 kts 220°
2026-05-03 23:51 18.42981 -69.67400 59 ft 3 kts 180°
2026-05-03 23:52 18.43003 -69.67405 59 ft 3 kts 154°
2026-05-03 23:52 18.43015 -69.67412 58 ft 2 kts 148°
2026-05-03 23:52 18.43024 -69.67418 61 ft 2 kts 144°
2026-05-03 23:52 18.43029 -69.67422 56 ft 0 kts 143°
2026-05-03 23:54 18.43027 -69.67421 58 ft 2 kts 143°
2026-05-03 23:54 18.43010 -69.67408 64 ft 4 kts 144°
2026-05-03 23:54 18.42994 -69.67396 64 ft 1 kts 142°
2026-05-03 23:54 18.42987 -69.67386 59 ft 9 kts 122°
2026-05-03 23:55 18.42964 -69.67251 62 ft 16 kts 89°
2026-05-03 23:55 18.42950 -69.67141 68 ft 13 kts 96°
2026-05-03 23:55 18.42914 -69.67072 70 ft 11 kts 149°
2026-05-03 23:55 18.42842 -69.67043 68 ft 12 kts 160°
2026-05-03 23:56 18.42750 -69.67008 69 ft 16 kts 160°
2026-05-03 23:56 18.42630 -69.66967 68 ft 20 kts 161°
2026-05-03 23:56 18.42488 -69.66916 67 ft 23 kts 161°
2026-05-03 23:56 18.42326 -69.66853 60 ft 26 kts 162°
2026-05-03 23:57 18.42149 -69.66792 65 ft 27 kts 159°
2026-05-03 23:57 18.41972 -69.66723 61 ft 27 kts 160°
2026-05-03 23:57 18.41798 -69.66660 70 ft 26 kts 161°
2026-05-03 23:57 18.41624 -69.66599 71 ft 26 kts 155°
2026-05-03 23:58 18.41551 -69.66517 68 ft 0 kts 108°
2026-05-03 23:58 18.41547 -69.66503 68 ft 7 kts 108°
2026-05-03 23:59 18.41550 -69.66421 65 ft 17 kts 54°
2026-05-03 23:59 18.41636 -69.66403 66 ft 14 kts 346°
2026-05-03 23:59 18.41876 -69.66493 67 ft 72 kts 341°
2026-05-03 23:59 18.42550 -69.66733 68 ft 131 kts 342°
2026-05-04 00:00 18.43566 -69.67111 60 ft 177 kts 341°
2026-05-04 00:00 18.44728 -69.67527 645 ft 169 kts 342°
2026-05-04 00:00 18.45845 -69.67933 1211 ft 172 kts 343°
2026-05-04 00:00 18.47004 -69.68362 1771 ft 176 kts 342°
2026-05-04 00:01 18.48185 -69.68801 2186 ft 189 kts 342°
2026-05-04 00:01 18.49477 -69.69279 2529 ft 204 kts 342°
2026-05-04 00:01 18.50872 -69.69793 2859 ft 221 kts 342°
2026-05-04 00:01 18.52372 -69.70343 3180 ft 238 kts 343°
2026-05-04 00:02 18.54044 -69.70492 3568 ft 249 kts 18°
2026-05-04 00:02 18.55502 -69.69537 4091 ft 253 kts 55°
2026-05-04 00:02 18.56137 -69.67824 4623 ft 258 kts 91°
2026-05-04 00:02 18.55672 -69.66016 5229 ft 261 kts 125°
2026-05-04 00:03 18.54401 -69.64625 5874 ft 269 kts 141°
2026-05-04 00:03 18.52859 -69.63471 6531 ft 274 kts 145°
2026-05-04 00:03 18.51253 -69.62358 7190 ft 278 kts 145°
2026-05-04 00:03 18.49653 -69.61201 7855 ft 281 kts 143°
2026-05-04 00:04 18.48072 -69.59972 8531 ft 284 kts 143°
2026-05-04 00:04 18.46348 -69.58941 9199 ft 288 kts 158°
2026-05-04 00:04 18.44395 -69.58434 9860 ft 292 kts 174°
2026-05-04 00:04 18.42347 -69.58503 10398 ft 300 kts 186°
2026-05-04 00:05 18.40223 -69.58765 10681 ft 316 kts 186°
2026-05-04 00:05 18.37986 -69.59042 10919 ft 332 kts 186°
2026-05-04 00:05 18.35640 -69.59330 11251 ft 344 kts 186°
2026-05-04 00:05 18.33244 -69.59625 11793 ft 348 kts 186°
2026-05-04 00:06 18.30826 -69.59925 12386 ft 351 kts 186°
2026-05-04 00:06 18.28389 -69.60228 12958 ft 354 kts 186°
2026-05-04 00:06 18.25936 -69.60534 13536 ft 358 kts 187°
2026-05-04 00:06 18.23463 -69.60930 14078 ft 361 kts 190°
2026-05-04 00:07 18.20984 -69.61423 14597 ft 363 kts 192°
2026-05-04 00:07 18.18512 -69.61963 15145 ft 364 kts 193°
2026-05-04 00:07 18.16034 -69.62517 15687 ft 365 kts 193°
2026-05-04 00:07 18.13545 -69.63066 16202 ft 367 kts 193°
2026-05-04 00:08 18.11031 -69.63608 16716 ft 369 kts 193°
2026-05-04 00:08 18.08514 -69.64138 17222 ft 371 kts 192°
2026-05-04 00:08 18.05967 -69.64666 17736 ft 374 kts 192°
2026-05-04 00:08 18.03412 -69.65191 18239 ft 376 kts 192°
2026-05-04 00:09 18.00838 -69.65717 18682 ft 378 kts 192°
2026-05-04 00:09 17.98243 -69.66246 19093 ft 381 kts 192°
2026-05-04 00:09 17.95633 -69.66778 19508 ft 384 kts 192°
2026-05-04 00:09 17.92999 -69.67319 19911 ft 386 kts 192°
2026-05-04 00:10 17.90359 -69.67863 20325 ft 389 kts 192°
2026-05-04 00:10 17.87694 -69.68413 20736 ft 391 kts 192°
2026-05-04 00:10 17.85019 -69.68963 21134 ft 394 kts 192°
2026-05-04 00:10 17.82321 -69.69516 21526 ft 397 kts 191°
2026-05-04 00:11 17.79595 -69.70073 21906 ft 400 kts 191°
2026-05-04 00:11 17.76855 -69.70636 22278 ft 403 kts 191°
2026-05-04 00:11 17.74092 -69.71205 22642 ft 406 kts 191°
2026-05-04 00:11 17.71311 -69.71780 23011 ft 409 kts 191°
2026-05-04 00:12 17.68512 -69.72357 23356 ft 412 kts 190°
2026-05-04 00:12 17.65691 -69.72938 23684 ft 415 kts 190°
2026-05-04 00:12 17.62843 -69.73523 23962 ft 418 kts 190°
2026-05-04 00:12 17.59981 -69.74111 24252 ft 420 kts 190°
2026-05-04 00:13 17.57113 -69.74698 24558 ft 421 kts 190°
2026-05-04 00:13 17.54233 -69.75287 24857 ft 423 kts 190°
2026-05-04 00:13 17.51333 -69.75881 25142 ft 425 kts 190°
2026-05-04 00:13 17.48424 -69.76476 25428 ft 427 kts 190°
2026-05-04 00:14 17.45515 -69.77072 25714 ft 428 kts 191°
2026-05-04 00:14 17.42576 -69.77677 25995 ft 430 kts 191°
2026-05-04 00:14 17.39640 -69.78281 26266 ft 432 kts 191°
2026-05-04 00:14 17.36691 -69.78885 26529 ft 433 kts 191°
2026-05-04 00:15 17.33763 -69.79482 26796 ft 435 kts 191°
2026-05-04 00:15 17.30751 -69.80096 27055 ft 436 kts 191°
2026-05-04 00:15 17.27801 -69.80699 27301 ft 438 kts 191°
2026-05-04 00:15 17.24769 -69.81320 27554 ft 440 kts 191°
2026-05-04 00:16 17.21795 -69.81928 27801 ft 441 kts 191°
2026-05-04 00:16 17.18776 -69.82546 28052 ft 443 kts 191°
2026-05-04 00:16 17.15707 -69.83173 28274 ft 445 kts 191°
2026-05-04 00:16 17.12705 -69.83785 28520 ft 446 kts 191°
2026-05-04 00:17 17.09647 -69.84409 28760 ft 448 kts 191°
2026-05-04 00:17 17.06582 -69.85039 28969 ft 450 kts 191°
2026-05-04 00:17 17.03507 -69.85673 29200 ft 451 kts 191°
2026-05-04 00:17 17.00424 -69.86308 29426 ft 452 kts 191°
2026-05-04 00:18 16.97332 -69.86943 29642 ft 454 kts 191°
2026-05-04 00:18 16.94233 -69.87575 29856 ft 455 kts 191°
2026-05-04 00:18 16.91119 -69.88208 30051 ft 457 kts 191°
2026-05-04 00:18 16.87995 -69.88844 30231 ft 458 kts 191°
2026-05-04 00:19 16.84866 -69.89483 30385 ft 459 kts 191°
2026-05-04 00:19 16.81722 -69.90122 30547 ft 461 kts 192°
2026-05-04 00:19 16.78574 -69.90762 30699 ft 462 kts 192°
2026-05-04 00:19 16.75413 -69.91405 30852 ft 463 kts 192°
2026-05-04 00:20 16.72250 -69.92048 31042 ft 463 kts 192°
2026-05-04 00:20 16.69097 -69.92689 31281 ft 462 kts 192°
2026-05-04 00:20 16.65952 -69.93326 31510 ft 461 kts 192°
2026-05-04 00:20 16.62802 -69.93964 31725 ft 460 kts 192°
2026-05-04 00:21 16.59656 -69.94601 31931 ft 460 kts 193°
2026-05-04 00:21 16.56513 -69.95235 32132 ft 460 kts 192°
2026-05-04 00:21 16.53372 -69.95870 32345 ft 460 kts 193°
2026-05-04 00:21 16.50240 -69.96505 32559 ft 459 kts 193°
2026-05-04 00:22 16.47106 -69.97143 32769 ft 459 kts 193°
2026-05-04 00:22 16.45028 -69.97566 32909 ft 458 kts 193°
2026-05-04 00:22 16.40885 -69.98407 33195 ft 458 kts 193°
2026-05-04 00:22 16.38772 -69.98834 33338 ft 457 kts 193°
2026-05-04 00:23 16.34639 -69.99666 33622 ft 457 kts 193°
2026-05-04 00:23 16.31521 -70.00297 33836 ft 456 kts 193°
2026-05-04 00:23 16.29422 -70.00724 33985 ft 456 kts 193°
2026-05-04 00:23 16.26310 -70.01354 34164 ft 455 kts 193°
2026-05-04 00:24 16.23196 -70.01987 34323 ft 455 kts 193°
2026-05-04 00:24 16.20097 -70.02617 34465 ft 456 kts 193°
2026-05-04 00:24 16.16981 -70.03251 34614 ft 456 kts 193°
2026-05-04 00:24 16.13870 -70.03881 34749 ft 456 kts 193°
2026-05-04 00:25 16.10750 -70.04511 34890 ft 456 kts 193°
2026-05-04 00:25 16.07634 -70.05139 35024 ft 456 kts 193°
2026-05-04 00:25 16.04514 -70.05769 35170 ft 456 kts 193°
2026-05-04 00:25 16.01420 -70.06465 35295 ft 454 kts 199°
2026-05-04 00:26 15.98472 -70.07590 35436 ft 450 kts 208°
2026-05-04 00:26 15.95717 -70.09101 35564 ft 448 kts 212°
2026-05-04 00:26 15.92978 -70.10665 35678 ft 448 kts 212°
2026-05-04 00:26 15.90243 -70.12226 35794 ft 449 kts 212°
2026-05-04 00:27 15.87516 -70.13785 35946 ft 448 kts 212°
2026-05-04 00:27 15.84788 -70.15344 36012 ft 446 kts 212°
2026-05-04 00:27 15.79390 -70.18412 36018 ft 445 kts 211°
2026-05-04 00:28 15.73923 -70.21511 36017 ft 445 kts 211°
2026-05-04 00:28 15.68501 -70.24587 36019 ft 444 kts 211°
2026-05-04 00:29 15.63084 -70.27659 36019 ft 444 kts 211°
2026-05-04 00:29 15.57689 -70.30719 36016 ft 444 kts 211°
2026-05-04 00:30 15.52283 -70.33793 36030 ft 443 kts 211°
2026-05-04 00:30 15.46879 -70.36851 36023 ft 442 kts 211°
2026-05-04 00:31 15.41480 -70.39906 36023 ft 441 kts 211°
2026-05-04 00:31 15.36101 -70.42945 36023 ft 440 kts 211°
2026-05-04 00:32 15.30724 -70.45987 36024 ft 439 kts 211°
2026-05-04 00:32 15.25372 -70.49015 36022 ft 438 kts 210°
2026-05-04 00:33 15.17344 -70.53545 36013 ft 438 kts 210°
2026-05-04 00:34 15.12006 -70.56560 36013 ft 437 kts 211°
2026-05-04 00:34 15.06667 -70.59577 36017 ft 437 kts 210°
2026-05-04 00:35 15.01332 -70.62582 36013 ft 437 kts 210°
2026-05-04 00:35 14.95991 -70.65593 36013 ft 437 kts 210°
2026-05-04 00:36 14.90650 -70.68597 36011 ft 437 kts 210°
2026-05-04 00:36 14.85319 -70.71593 36004 ft 436 kts 210°
2026-05-04 00:37 14.79987 -70.74591 35995 ft 437 kts 210°
2026-05-04 00:37 14.74683 -70.77583 36004 ft 438 kts 210°
2026-05-04 00:38 14.69255 -70.80635 35994 ft 445 kts 211°
2026-05-04 00:38 14.63816 -70.83688 36003 ft 450 kts 210°
2026-05-04 00:39 14.58242 -70.86813 35999 ft 455 kts 211°
2026-05-04 00:39 14.52704 -70.89925 35989 ft 458 kts 210°
2026-05-04 00:40 14.47083 -70.93072 35995 ft 460 kts 210°
2026-05-04 00:40 14.41459 -70.96220 35996 ft 460 kts 210°
2026-05-04 00:41 14.35819 -70.99375 35999 ft 461 kts 210°
2026-05-04 00:41 14.30185 -71.02528 36007 ft 461 kts 211°
2026-05-04 00:42 14.24545 -71.05683 36005 ft 461 kts 210°
2026-05-04 00:42 14.18913 -71.08831 35998 ft 461 kts 210°
2026-05-04 00:43 14.13274 -71.11978 35996 ft 461 kts 210°
2026-05-04 00:43 14.07628 -71.15124 35993 ft 461 kts 210°
2026-05-04 00:44 14.01992 -71.18273 35991 ft 461 kts 211°
2026-05-04 00:44 13.96357 -71.21424 35987 ft 461 kts 210°
2026-05-04 00:45 13.90751 -71.24541 35990 ft 461 kts 210°
2026-05-04 00:45 13.85061 -71.27709 35990 ft 461 kts 210°
2026-05-04 00:46 13.79419 -71.30846 35983 ft 461 kts 210°
2026-05-04 00:46 13.73779 -71.33988 35979 ft 461 kts 210°
2026-05-04 00:47 13.68142 -71.37129 35979 ft 460 kts 210°
2026-05-04 00:47 13.62500 -71.40269 35977 ft 460 kts 210°
2026-05-04 00:48 13.56875 -71.43391 35972 ft 460 kts 210°
2026-05-04 00:48 13.51280 -71.46489 35978 ft 460 kts 210°
2026-05-04 00:49 13.45645 -71.49613 35975 ft 459 kts 210°
2026-05-04 00:49 13.40031 -71.52731 35975 ft 459 kts 210°
2026-05-04 00:50 13.34406 -71.55851 35972 ft 460 kts 210°
2026-05-04 00:50 13.28770 -71.58978 35969 ft 460 kts 210°
2026-05-04 00:51 13.23137 -71.62095 35968 ft 461 kts 210°
2026-05-04 00:51 13.17498 -71.65208 35971 ft 461 kts 210°
2026-05-04 00:52 13.11841 -71.68339 35972 ft 462 kts 210°
2026-05-04 00:52 13.06196 -71.71467 35971 ft 462 kts 211°
2026-05-04 00:53 13.00532 -71.74597 35978 ft 462 kts 210°
2026-05-04 00:53 12.94869 -71.77713 35976 ft 463 kts 210°
2026-05-04 00:54 12.89204 -71.80836 35976 ft 462 kts 211°
2026-05-04 00:54 12.83539 -71.83976 35978 ft 463 kts 210°
2026-05-04 00:55 12.77878 -71.87127 35978 ft 463 kts 211°
2026-05-04 00:55 12.72259 -71.90355 35968 ft 463 kts 211°
2026-05-04 00:56 12.66682 -71.93582 35969 ft 464 kts 211°
2026-05-04 00:56 12.61024 -71.96831 35971 ft 464 kts 211°
2026-05-04 00:57 12.55407 -72.00033 35979 ft 464 kts 211°
2026-05-04 00:57 12.49757 -72.03251 35970 ft 465 kts 211°
2026-05-04 00:58 12.44111 -72.06461 35965 ft 465 kts 211°
2026-05-04 00:58 12.38460 -72.09675 35963 ft 465 kts 211°
2026-05-04 00:59 12.32802 -72.12902 35953 ft 465 kts 211°
2026-05-04 00:59 12.27151 -72.16124 35953 ft 466 kts 210°
2026-05-04 01:00 12.21493 -72.19350 35944 ft 466 kts 211°
2026-05-04 01:00 12.15821 -72.22580 35944 ft 466 kts 210°
2026-05-04 01:01 12.10154 -72.25808 35945 ft 467 kts 210°
2026-05-04 01:01 12.04479 -72.29037 35951 ft 467 kts 210°
2026-05-04 01:02 11.98800 -72.32267 35955 ft 467 kts 210°
2026-05-04 01:02 11.93118 -72.35495 35951 ft 467 kts 210°
2026-05-04 01:03 11.87430 -72.38730 35954 ft 468 kts 210°
2026-05-04 01:03 11.81743 -72.41956 35949 ft 468 kts 210°
2026-05-04 01:04 11.76010 -72.45208 35952 ft 468 kts 210°
2026-05-04 01:04 11.70352 -72.48420 35949 ft 469 kts 210°
2026-05-04 01:05 11.64651 -72.51651 35948 ft 469 kts 210°
2026-05-04 01:05 11.58935 -72.54885 35944 ft 469 kts 210°
2026-05-04 01:06 11.53243 -72.58104 35944 ft 470 kts 210°
2026-05-04 01:06 11.47513 -72.61358 35935 ft 470 kts 210°
2026-05-04 01:07 11.41793 -72.64601 35941 ft 471 kts 209°
2026-05-04 01:07 11.36054 -72.67845 35949 ft 471 kts 209°
2026-05-04 01:08 11.30321 -72.71088 35943 ft 472 kts 209°
2026-05-04 01:08 11.25503 -72.73811 35949 ft 473 kts 209°
2026-05-04 01:09 11.19749 -72.77053 35956 ft 473 kts 209°
2026-05-04 01:09 11.14035 -72.80275 35960 ft 473 kts 209°
2026-05-04 01:10 11.08285 -72.83526 35963 ft 473 kts 209°
2026-05-04 01:10 11.02527 -72.86777 35966 ft 474 kts 209°
2026-05-04 01:11 10.96763 -72.90025 35981 ft 473 kts 209°
2026-05-04 01:11 10.91005 -72.93270 35978 ft 474 kts 209°
2026-05-04 01:12 10.85235 -72.96528 35984 ft 474 kts 208°
2026-05-04 01:12 10.79467 -72.99775 35987 ft 474 kts 208°
2026-05-04 01:13 10.73695 -73.03019 35993 ft 474 kts 208°
2026-05-04 01:13 10.67923 -73.06266 35990 ft 474 kts 208°
2026-05-04 01:14 10.62155 -73.09512 35983 ft 474 kts 208°
2026-05-04 01:14 10.56393 -73.12750 35975 ft 473 kts 208°
2026-05-04 01:15 10.50627 -73.15987 35968 ft 473 kts 208°
2026-05-04 01:15 10.44824 -73.19243 35966 ft 473 kts 208°
2026-05-04 01:16 10.39058 -73.22481 35964 ft 473 kts 208°
2026-05-04 01:16 10.33309 -73.25714 35965 ft 472 kts 208°
2026-05-04 01:17 10.27565 -73.28939 35961 ft 472 kts 208°
2026-05-04 01:17 10.21812 -73.32161 35954 ft 472 kts 208°
2026-05-04 01:18 10.16056 -73.35379 35944 ft 472 kts 208°
2026-05-04 01:18 10.10298 -73.38605 35930 ft 472 kts 208°
2026-05-04 01:19 10.04547 -73.41830 35921 ft 473 kts 208°
2026-05-04 01:19 9.98783 -73.45065 35912 ft 473 kts 208°
2026-05-04 01:20 9.93025 -73.48289 35912 ft 473 kts 208°
2026-05-04 01:20 9.87258 -73.51504 35908 ft 473 kts 208°
2026-05-04 01:21 9.81451 -73.54749 35908 ft 473 kts 208°
2026-05-04 01:21 9.75677 -73.57953 35907 ft 472 kts 204°
2026-05-04 01:22 9.69420 -73.59823 35900 ft 471 kts 189°
2026-05-04 01:22 9.62954 -73.60948 35911 ft 471 kts 189°
2026-05-04 01:23 9.56491 -73.62084 35917 ft 471 kts 189°
2026-05-04 01:23 9.50034 -73.63216 35924 ft 471 kts 189°
2026-05-04 01:24 9.43611 -73.64360 35926 ft 471 kts 189°
2026-05-04 01:24 9.37108 -73.65513 35927 ft 471 kts 189°
2026-05-04 01:25 9.30654 -73.66643 35934 ft 471 kts 189°
2026-05-04 01:25 9.24237 -73.67772 35929 ft 471 kts 189°
2026-05-04 01:26 9.17740 -73.68914 35928 ft 470 kts 189°
2026-05-04 01:26 9.11328 -73.70029 35923 ft 471 kts 189°
2026-05-04 01:27 9.04834 -73.71155 35928 ft 470 kts 189°
2026-05-04 01:27 8.98386 -73.72278 35925 ft 470 kts 189°
2026-05-04 01:28 8.91991 -73.73401 35926 ft 470 kts 189°
2026-05-04 01:28 8.85555 -73.74536 35925 ft 469 kts 189°
2026-05-04 01:29 8.79117 -73.75664 35917 ft 470 kts 189°
2026-05-04 01:29 8.72673 -73.76789 35921 ft 470 kts 189°
2026-05-04 01:30 8.66230 -73.77912 35926 ft 469 kts 189°
2026-05-04 01:30 8.59792 -73.79038 35930 ft 470 kts 189°
2026-05-04 01:31 8.53358 -73.80170 35930 ft 469 kts 189°
2026-05-04 01:31 8.46936 -73.81298 35930 ft 469 kts 189°
2026-05-04 01:32 8.40491 -73.82424 35928 ft 469 kts 189°
2026-05-04 01:32 8.34060 -73.83542 35923 ft 469 kts 189°
2026-05-04 01:33 8.27626 -73.84667 35923 ft 469 kts 189°
2026-05-04 01:33 8.21144 -73.85799 35922 ft 469 kts 189°
2026-05-04 01:34 8.14753 -73.86911 35922 ft 469 kts 189°
2026-05-04 01:34 8.08330 -73.88027 35924 ft 469 kts 189°
2026-05-04 01:35 8.01855 -73.88468 35911 ft 468 kts 175°
2026-05-04 01:35 7.95353 -73.87951 35907 ft 468 kts 175°
2026-05-04 01:36 7.88850 -73.87427 35911 ft 469 kts 175°
2026-05-04 01:36 7.82346 -73.86902 35910 ft 470 kts 175°
2026-05-04 01:37 7.75820 -73.86377 35908 ft 470 kts 175°
2026-05-04 01:37 7.69296 -73.85852 35909 ft 470 kts 174°
2026-05-04 01:38 7.62770 -73.85334 35909 ft 470 kts 175°
2026-05-04 01:38 7.56241 -73.84813 35912 ft 471 kts 174°
2026-05-04 01:39 7.49722 -73.84288 35908 ft 470 kts 175°
2026-05-04 01:39 7.43194 -73.83766 35909 ft 470 kts 175°
2026-05-04 01:40 7.36663 -73.83244 35910 ft 470 kts 175°
2026-05-04 01:40 7.30144 -73.82725 35902 ft 470 kts 175°
2026-05-04 01:41 7.23619 -73.82203 35914 ft 470 kts 175°
2026-05-04 01:41 7.17093 -73.81676 35898 ft 470 kts 175°
2026-05-04 01:42 7.10561 -73.81154 35886 ft 470 kts 175°
2026-05-04 01:42 7.04036 -73.80696 35892 ft 470 kts 180°
2026-05-04 01:43 6.97545 -73.81562 35880 ft 472 kts 190°
2026-05-04 01:43 6.91136 -73.82763 35889 ft 472 kts 189°
2026-05-04 01:44 6.84637 -73.83964 35908 ft 472 kts 189°
2026-05-04 01:44 6.78219 -73.85157 35929 ft 472 kts 189°
2026-05-04 01:45 6.71770 -73.86362 35957 ft 472 kts 189°
2026-05-04 01:45 6.62089 -73.88182 35987 ft 472 kts 189°
2026-05-04 01:46 6.55632 -73.89386 36000 ft 472 kts 189°
2026-05-04 01:46 6.49194 -73.90587 36014 ft 463 kts 189°
2026-05-04 01:47 6.46083 -73.91169 36025 ft 448 kts 189°
2026-05-04 01:47 6.43031 -73.91740 36029 ft 448 kts 189°
2026-05-04 01:47 6.36893 -73.92886 36042 ft 448 kts 189°
2026-05-04 01:48 6.30771 -73.94035 36057 ft 448 kts 189°
2026-05-04 01:48 6.24642 -73.95180 36072 ft 448 kts 189°
2026-05-04 01:49 6.21561 -73.95751 35897 ft 450 kts 189°
2026-05-04 01:49 6.18493 -73.96323 35413 ft 447 kts 189°
2026-05-04 01:49 6.16482 -73.96699 35072 ft 444 kts 189°
2026-05-04 01:49 6.13447 -73.97267 34542 ft 442 kts 189°
2026-05-04 01:50 6.09413 -73.98025 33802 ft 439 kts 189°
2026-05-04 01:50 6.07433 -73.98397 33450 ft 436 kts 189°
2026-05-04 01:50 6.04458 -73.98954 32943 ft 433 kts 189°
2026-05-04 01:50 6.01515 -73.99501 32438 ft 429 kts 189°
2026-05-04 01:51 5.98588 -74.00045 31941 ft 426 kts 189°
2026-05-04 01:51 5.95689 -74.00593 31449 ft 423 kts 189°
2026-05-04 01:51 5.92799 -74.01145 30968 ft 421 kts 190°
2026-05-04 01:51 5.89926 -74.01696 30474 ft 418 kts 190°
2026-05-04 01:52 5.87081 -74.02240 29974 ft 415 kts 190°
2026-05-04 01:52 5.84264 -74.02775 29511 ft 410 kts 189°
2026-05-04 01:52 5.81477 -74.03299 29051 ft 406 kts 189°
2026-05-04 01:52 5.78719 -74.03817 28619 ft 401 kts 189°
2026-05-04 01:53 5.75986 -74.04334 28203 ft 398 kts 189°
2026-05-04 01:53 5.73274 -74.04850 27768 ft 394 kts 189°
2026-05-04 01:53 5.70589 -74.05363 27329 ft 391 kts 189°
2026-05-04 01:53 5.67926 -74.05870 26899 ft 389 kts 189°
2026-05-04 01:54 5.65277 -74.06371 26460 ft 386 kts 189°
2026-05-04 01:54 5.62641 -74.06870 26015 ft 384 kts 189°
2026-05-04 01:54 5.60025 -74.07366 25567 ft 382 kts 189°
2026-05-04 01:54 5.57421 -74.07861 25115 ft 380 kts 189°
2026-05-04 01:55 5.54831 -74.08353 24636 ft 380 kts 189°
2026-05-04 01:55 5.52234 -74.08846 24168 ft 379 kts 189°
2026-05-04 01:55 5.49654 -74.09336 23673 ft 379 kts 188°
2026-05-04 01:55 5.47055 -74.09829 23154 ft 377 kts 188°
2026-05-04 01:56 5.44495 -74.10373 22688 ft 376 kts 195°
2026-05-04 01:56 5.42089 -74.11404 22228 ft 377 kts 209°
2026-05-04 01:56 5.39994 -74.12974 21845 ft 375 kts 222°
2026-05-04 01:56 5.38244 -74.14896 21480 ft 372 kts 227°
2026-05-04 01:57 5.36544 -74.16831 21106 ft 368 kts 226°
2026-05-04 01:57 5.34848 -74.18747 20728 ft 366 kts 226°
2026-05-04 01:57 5.33181 -74.20627 20378 ft 364 kts 226°
2026-05-04 01:57 5.31501 -74.22524 20011 ft 363 kts 226°
2026-05-04 01:58 5.29828 -74.24414 19643 ft 362 kts 226°
2026-05-04 01:58 5.28141 -74.26322 19283 ft 360 kts 226°
2026-05-04 01:58 5.26506 -74.28167 18923 ft 359 kts 226°
2026-05-04 01:58 5.24995 -74.30148 18560 ft 358 kts 239°
2026-05-04 01:59 5.24021 -74.32429 18239 ft 356 kts 254°
2026-05-04 01:59 5.23625 -74.34878 17874 ft 355 kts 269°
2026-05-04 01:59 5.23769 -74.37348 17838 ft 355 kts 275°
2026-05-04 01:59 5.23971 -74.39821 17838 ft 356 kts 275°
2026-05-04 02:00 5.24160 -74.42292 17827 ft 355 kts 274°
2026-05-04 02:00 5.24290 -74.44766 17827 ft 355 kts 268°
2026-05-04 02:00 5.23978 -74.47211 17814 ft 353 kts 255°
2026-05-04 02:00 5.23209 -74.49544 17811 ft 354 kts 248°
2026-05-04 02:01 5.22326 -74.51851 17808 ft 353 kts 245°
2026-05-04 02:01 5.21046 -74.53921 17792 ft 349 kts 224°
2026-05-04 02:01 5.19164 -74.55402 17779 ft 343 kts 203°
2026-05-04 02:01 5.16933 -74.56151 17657 ft 338 kts 185°
2026-05-04 02:02 5.14609 -74.56106 17160 ft 331 kts 164°
2026-05-04 02:02 5.12494 -74.55296 16775 ft 323 kts 146°
2026-05-04 02:02 5.10612 -74.54092 16418 ft 320 kts 144°
2026-05-04 02:02 5.08747 -74.52884 16045 ft 319 kts 144°
2026-05-04 02:03 5.06891 -74.51682 15722 ft 316 kts 144°
2026-05-04 02:03 5.05044 -74.50483 15338 ft 316 kts 144°
2026-05-04 02:03 5.03210 -74.49295 14982 ft 314 kts 144°
2026-05-04 02:03 5.01398 -74.48120 14554 ft 306 kts 144°
2026-05-04 02:04 4.99642 -74.46981 14184 ft 296 kts 144°
2026-05-04 02:04 4.97946 -74.45883 13812 ft 285 kts 144°
2026-05-04 02:04 4.96312 -74.44825 13468 ft 275 kts 145°
2026-05-04 02:04 4.94700 -74.43780 13139 ft 276 kts 145°
2026-05-04 02:05 4.93097 -74.42742 12996 ft 274 kts 145°
2026-05-04 02:05 4.91531 -74.41660 12888 ft 273 kts 137°
2026-05-04 02:05 4.90244 -74.40278 12910 ft 269 kts 126°
2026-05-04 02:05 4.89163 -74.38813 12916 ft 253 kts 125°
2026-05-04 02:06 4.88165 -74.37461 12940 ft 230 kts 125°
2026-05-04 02:06 4.87206 -74.36188 12983 ft 229 kts 126°
2026-05-04 02:06 4.86251 -74.34925 12908 ft 222 kts 126°
2026-05-04 02:06 4.85353 -74.33738 12697 ft 207 kts 126°
2026-05-04 02:07 4.84510 -74.32623 12463 ft 194 kts 125°
2026-05-04 02:07 4.83718 -74.31576 12232 ft 186 kts 125°
2026-05-04 02:07 4.82946 -74.30554 12009 ft 186 kts 126°
2026-05-04 02:07 4.82166 -74.29522 11783 ft 186 kts 126°
2026-05-04 02:08 4.81383 -74.28486 11552 ft 186 kts 126°
2026-05-04 02:08 4.80603 -74.27455 11328 ft 186 kts 126°
2026-05-04 02:08 4.79824 -74.26425 11104 ft 186 kts 126°
2026-05-04 02:08 4.79044 -74.25394 10880 ft 185 kts 126°
2026-05-04 02:09 4.78266 -74.24365 10655 ft 185 kts 127°
2026-05-04 02:09 4.77527 -74.23389 10453 ft 168 kts 127°
2026-05-04 02:09 4.76825 -74.22460 10244 ft 167 kts 127°
2026-05-04 02:09 4.76120 -74.21528 10019 ft 167 kts 127°
2026-05-04 02:10 4.75412 -74.20591 9797 ft 166 kts 127°
2026-05-04 02:10 4.74721 -74.19679 9581 ft 166 kts 127°
2026-05-04 02:10 4.74024 -74.18757 9352 ft 165 kts 127°
2026-05-04 02:10 4.73329 -74.17839 9110 ft 165 kts 126°
2026-05-04 02:11 4.72639 -74.16926 8858 ft 165 kts 127°
2026-05-04 02:11 4.71949 -74.16016 8621 ft 164 kts 127°
2026-05-04 02:11 4.71259 -74.15112 8393 ft 161 kts 126°
2026-05-04 02:11 4.70635 -74.14279 8373 ft 137 kts 124°
2026-05-04 02:12 4.70193 -74.13700 8368 ft 74 kts 123°
2026-05-04 02:12 4.69967 -74.13402 8370 ft 39 kts 125°
2026-05-04 02:12 4.69810 -74.13323 8370 ft 21 kts 167°
2026-05-04 02:12 4.69738 -74.13309 8370 ft 0 kts 172°
2026-05-04 02:13 4.69720 -74.13307 8370 ft 6 kts 172°
2026-05-04 02:13 4.69657 -74.13298 8370 ft 12 kts 172°
2026-05-04 02:14 4.69583 -74.13330 8370 ft 14 kts 287°
2026-05-04 02:14 4.69653 -74.13424 8370 ft 20 kts 308°
2026-05-04 02:14 4.69747 -74.13548 8370 ft 25 kts 307°
2026-05-04 02:14 4.69767 -74.13645 8370 ft 12 kts 236°
2026-05-04 02:15 4.69781 -74.13715 8370 ft 11 kts 307°
2026-05-04 02:15 4.69830 -74.13777 8370 ft 11 kts 308°
2026-05-04 02:15 4.69861 -74.13841 8370 ft 9 kts 249°
2026-05-04 02:15 4.69821 -74.13872 8371 ft 6 kts 217°
2026-05-04 02:16 4.69804 -74.13886 8370 ft 0 kts 218°